AXI752 KNEW-KLAS

Flight info

Callsign AXI752
Flight time N/A
Altitude 43000
Route AEX J58 FUZ LBB CNX ZUN HAHAA RKSTR4
Aircraft C750/M-SBDE3FGHRWXY/S

Departure

Time 2026-04-24 22:25
Airport Lakefront Airport (KNEW)

Arrival

Time N/A
Airport Harry Reid International Airport (KLAS)
Time Latitude Longitude Altitude Speed Heading
2026-04-24 22:08 30.03446 -90.02727 11 ft 0 kts 51°
2026-04-24 22:16 30.03447 -90.02725 11 ft 2 kts 51°
2026-04-24 22:16 30.03461 -90.02706 11 ft 2 kts 51°
2026-04-24 22:17 30.03476 -90.02685 11 ft 2 kts 51°
2026-04-24 22:17 30.03477 -90.02684 11 ft 0 kts 51°
2026-04-24 22:19 30.03480 -90.02681 11 ft 3 kts 37°
2026-04-24 22:19 30.03518 -90.02703 11 ft 10 kts 314°
2026-04-24 22:20 30.03574 -90.02792 11 ft 17 kts 298°
2026-04-24 22:20 30.03661 -90.02857 11 ft 17 kts 358°
2026-04-24 22:20 30.03779 -90.02860 11 ft 17 kts 356°
2026-04-24 22:20 30.03899 -90.02862 11 ft 17 kts 359°
2026-04-24 22:21 30.04022 -90.02863 12 ft 18 kts 359°
2026-04-24 22:21 30.04166 -90.02866 12 ft 23 kts 359°
2026-04-24 22:21 30.04344 -90.02868 12 ft 28 kts 359°
2026-04-24 22:21 30.04546 -90.02871 12 ft 29 kts 359°
2026-04-24 22:22 30.04751 -90.02875 11 ft 30 kts 359°
2026-04-24 22:22 30.04925 -90.02844 11 ft 20 kts
2026-04-24 22:22 30.05044 -90.02847 11 ft 17 kts 356°
2026-04-24 22:22 30.05164 -90.02867 11 ft 18 kts 352°
2026-04-24 22:23 30.05245 -90.02882 11 ft 2 kts 349°
2026-04-24 22:23 30.05259 -90.02887 11 ft 3 kts 338°
2026-04-24 22:23 30.05272 -90.02904 11 ft 3 kts 296°
2026-04-24 22:23 30.05274 -90.02933 11 ft 4 kts 265°
2026-04-24 22:24 30.05272 -90.02970 11 ft 8 kts 265°
2026-04-24 22:24 30.05254 -90.02998 11 ft 0 kts 177°
2026-04-24 22:24 30.05164 -90.02993 10 ft 50 kts 178°
2026-04-24 22:24 30.04472 -90.02980 28 ft 134 kts 179°
2026-04-24 22:25 30.03600 -90.02981 220 ft 119 kts 179°
2026-04-24 22:25 30.02680 -90.02988 477 ft 146 kts 179°
2026-04-24 22:25 30.01529 -90.03071 663 ft 185 kts 187°
2026-04-24 22:25 30.00666 -90.03399 863 ft 206 kts 205°
2026-04-24 22:26 29.99534 -90.04647 1040 ft 250 kts 237°
2026-04-24 22:26 29.98897 -90.06414 1630 ft 239 kts 247°
2026-04-24 22:26 29.98804 -90.08385 2114 ft 257 kts 283°
2026-04-24 22:26 29.99649 -90.10189 2680 ft 257 kts 303°
2026-04-24 22:27 30.00712 -90.11865 3306 ft 261 kts 304°
2026-04-24 22:27 30.01752 -90.13606 3909 ft 266 kts 300°
2026-04-24 22:27 30.02718 -90.15446 4700 ft 269 kts 299°
2026-04-24 22:27 30.03686 -90.17295 5690 ft 269 kts 301°
2026-04-24 22:28 30.04683 -90.19129 6564 ft 272 kts 300°
2026-04-24 22:28 30.05691 -90.20980 7475 ft 273 kts 301°
2026-04-24 22:28 30.06692 -90.22841 8467 ft 273 kts 300°
2026-04-24 22:28 30.07694 -90.24708 9473 ft 276 kts 300°
2026-04-24 22:29 30.09738 -90.28501 11103 ft 281 kts 300°